Vertical_Velocity
5 16 12 -0 -13 -0 10 -3 19 -40 -5 -21 -41 42 -3 -12 1 -8 -8 -11 -2 2 15 6 8 24 15 1 0 2 2 0 0 0 7 7 5 7 -1 -8 8 -16 -3 40
-22 5 7 -8 -12 7 0 -8 -2 -11 -16 5 -21 2 11 -16 -0 2 -1 6 0 13 13 3 3 9 -1 9 5 7 1 10 12 5 -2 1 5 3 5 3 2 10 12 1
-40 11 5 -20 11 -7 -4 -4 2 2 -27 3 -22 4 3 11 -1 -6 -2 2 -5 -1 1 -6 -4 21 6 2 0 1 8 -2 2 1 4 -1 -10 -0 8 -1 8 -1 15 12
-19 6 7 -31 -2 5 1 -1 1 -7 -17 2 -4 -16 5 10 -6 -17 -6 -8 -3 -0 -5 -51 -22 10 26 -5 -2 -4 -5 3 -9 -6 -2 4 4 1 4 3 3 10 12 13
3 1 -28 -43 -35 18 15 -44 15 1 -8 -4 8 -13 32 6 4 -11 -17 1 -15 -3 11 10 17 1 -6 19 3 -1 -3 4 2 2 1 6 4 5 2 -1 3 10 9 5
16 4 -3 -56 -32 40 14 -24 -1 4 -10 9 7 -3 -4 6 15 -3 -4 -1 -14 12 5 -3 1 -2 2 5 3 -10 2 1 6 1 4 2 1 3 5 0 1 14 6 1
-7 -0 -17 -57 26 12 16 -111 -0 17 -9 1 5 14 -20 -3 -2 -2 -4 -20 -14 -5 -15 -16 11 -5 -7 6 -5 11 6 8 10 10 -3 1 2 3 2 3 8 3 9 10
10 9 -17 32 9 12 -15 -2 2 4 5 -8 0 2 -20 14 14 8 8 -3 0 -9 -13 -5 3 -12 -5 -4 18 0 -5 8 8 3 0 1 1 3 2 8 7 10 15 8
-0 -40 -12 14 -15 4 6 -13 -1 -6 -1 -1 -4 -0 3 -12 -16 -7 7 6 3 0 -1 -3 -3 2 -5 13 -4 6 9 6 5 3 1 7 -1 6 -7 4 4 13 5 1
64 -45 -36 34 -11 2 16 -3 7 7 4 7 -14 5 -9 -4 -4 -3 -1 -19 -2 -0 -2 -8 3 13 6 -8 -1 2 4 0 8 11 6 8 4 -1 3 6 13 11 -0 4
-12 -50 46 -14 -0 1 -2 10 3 -1 1 -8 -3 -6 -1 -2 -3 2 -7 -11 -2 -34 -9 5 18 3 -1 7 9 6 3 6 4 10 6 13 9 2 16 13 11 9 6 3
-46 16 8 -36 -2 -5 -8 -4 1 3 -7 7 2 -8 -2 1 -11 -11 1 5 1 -21 -1 -7 10 9 3 -2 -4 -1 -3 3 4 13 11 11 7 21 5 8 3 -0 -1 6
-26 9 11 -22 -7 8 1 5 7 1 -0 -10 1 3 -1 -14 6 -6 -0 3 -1 5 -20 19 12 8 -2 1 -3 5 -3 5 4 20 18 9 13 3 2 -1 2 2 5 6
1 8 -9 -7 -38 5 9 -0 2 -0 0 -7 -5 -4 -5 -8 -1 9 4 -1 -12 -3 -2 10 3 -2 1 -1 3 5 2 -1 7 20 22 11 -1 1 3 2 4 2 4 3
-1 15 -11 -11 9 -10 4 4 -0 -3 -4 -7 -3 0 -2 -1 -4 3 -1 0 2 -5 3 7 1 3 4 0 1 4 16 12 18 10 9 7 5 6 3 7 8 2 -5 -4
-2 2 3 1 -4 1 6 -4 -3 -8 -1 -6 -2 3 -2 1 -6 -10 -10 -11 -2 13 13 6 1 5 2 -4 -1 6 7 11 11 10 5 6 7 5 3 2 1 -5 -2 0
-7 -3 3 5 7 -2 -6 -3 -3 -4 -4 -3 5 0 5 2 6 13 11 8 6 11 1 6 4 2 4 2 -3 5 7 8 10 8 5 1 1 3 4 1 -6 -8 -3 -3
-0 2 5 0 -9 -6 -5 -0 0 -1 1 1 -4 1 7 7 6 14 4 4 3 1 -1 3 0 3 7 4 7 3 4 3 5 5 7 6 1 -2 -7 -5 -0 1 -0 -2
1 -2 4 1 -3 -1 -5 5 8 11 1 4 13 5 11 16 10 7 -1 3 1 -1 6 0 -1 9 9 7 5 1 0 -2 -1 -1 -0 -5 -9 -3 -2 2 1 -1 -2 2
-2 2 2 -7 -4 -2 7 8 -0 -5 2 5 7 15 17 9 8 5 3 7 4 8 2 2 6 4 8 3 2 0 1 -4 -6 -4 -2 -5 -3 -2 0 2 2 3 3 2
-1 -2 -5 5 11 10 3 5 7 6 2 3 5 4 0 3 12 10 12 5 12 5 2 4 1 -1 -1 1 -0 -0 -2 -5 -5 -3 -1 -1 2 4 4 2 1 3 3 2
-4 -3 3 3 2 2 2 2 3 4 8 10 8 6 14 10 9 7 2 3 0 -0 -0 -2 -8 -7 -1 -3 -1 -1 -1 -0 1 2 -0 -1 -1 0 1 2 2 2 0 -0
-2 2 5 5 8 5 2 2 6 11 9 10 6 10 2 -4 -9 -2 -3 -6 -7 -9 -5 2 0 -1 2 -2 -1 0 -1 -2 1 2 3 3 3 1 2 2 1 0 0 -0
2 10 7 4 6 9 -3 5 2 -3 -2 -4 -12 -10 -6 -3 -7 -6 -2 -3 -3 -1 -4 -4 -3 -0 1 -1 1 2 3 2 0 1 2 1 1 2 1 2 1 0 -0 2
4 2 7 8 5 -3 -4 -9 -4 -2 1 1 -3 -2 3 -5 10 -2 1 2 -0 -3 1 1 -0 4 2 -0 0 2 -2 -0 1 1 2 2 -1 -2 0 1 1 1 -0 -1
7 2 -1 3 1 2 -1 2 3 -6 -5 -5 -1 -0 -3 -1 0 0 -6 -2 -4 -2 -3 1 2 1 -0 1 2 1 3 1 0 0 1 2 3 4 4 1 -0 2 -0 1
0 0 3 2 -1 -0 -1 -2 1 1 1 -1 -2 1 3 -0 -2 1 2 2 -1 -2 0 1 -1 -0 1 1 2 4 2 1 4 4 0 2 2 1 2 3 2 -1 0 2
Height
3041 3042 3043 3042 3039 3038 3041 3038 3041 3028 3035 3026 3019 3012 3014 3013 3011 3008 3009 3010 3011 3013 3013 3014 3016 3018 3019 3021 3024 3027 3029 3029 3031 3030 3032 3035 3037 3036 3036 3035 3035 3036 3029 3032
3031 3035 3034 3031 3026 3027 3029 3027 3029 3027 3019 3021 3015 3008 3007 3006 3005 3001 3001 3001 3003 3005 3004 3004 3006 3011 3013 3014 3016 3019 3019 3019 3021 3021 3023 3026 3028 3026 3026 3027 3027 3027 3024 3022
3025 3032 3026 3019 3012 3017 3016 3017 3018 3015 3012 3009 3008 3003 3001 2997 2995 2996 2996 2992 2992 2993 2996 3000 3000 3003 3004 3006 3008 3009 3010 3011 3013 3013 3016 3016 3017 3015 3016 3016 3016 3015 3014 3015
3023 3026 3018 3003 3008 3008 3006 3005 3008 3007 3004 3001 2999 2994 2991 2991 2985 2983 2982 2983 2982 2983 2986 2984 2991 2993 2994 2997 2998 3000 3001 3002 3004 3005 3007 3007 3006 3007 3005 3006 3005 3005 3004 3000
3017 3014 3005 3000 2996 2999 2998 2993 2999 2998 2995 2992 2991 2983 2981 2982 2978 2976 2975 2972 2973 2973 2974 2977 2978 2979 2981 2984 2987 2988 2989 2992 2993 2995 2996 2997 2997 2997 2995 2995 2995 2995 2994 2998
3007 3004 2997 2990 2989 2991 2992 2985 2986 2988 2986 2983 2980 2974 2969 2969 2967 2966 2965 2963 2961 2962 2962 2963 2964 2966 2967 2970 2974 2977 2980 2983 2984 2986 2988 2987 2988 2986 2986 2985 2988 2987 2984 2987
2996 2994 2985 2979 2981 2985 2986 2976 2972 2974 2976 2974 2971 2969 2961 2960 2958 2956 2954 2952 2947 2946 2949 2953 2956 2956 2955 2955 2958 2966 2970 2971 2974 2975 2977 2978 2978 2976 2976 2977 2977 2978 2979 2982
2987 2985 2977 2971 2974 2974 2967 2967 2966 2965 2965 2964 2961 2958 2955 2949 2944 2942 2940 2939 2937 2933 2934 2940 2944 2944 2942 2941 2948 2951 2954 2959 2962 2965 2965 2967 2967 2966 2967 2968 2967 2967 2970 2974
2974 2966 2964 2963 2962 2961 2961 2960 2957 2956 2956 2955 2951 2947 2945 2940 2934 2932 2929 2926 2925 2923 2919 2922 2928 2930 2932 2933 2934 2937 2943 2946 2948 2951 2953 2955 2955 2955 2955 2956 2954 2957 2963 2970
2962 2951 2950 2952 2954 2952 2952 2947 2945 2945 2943 2941 2938 2936 2933 2929 2927 2923 2918 2916 2914 2915 2912 2911 2912 2915 2918 2920 2923 2927 2929 2932 2935 2937 2939 2940 2941 2941 2941 2940 2945 2951 2958 2963
2948 2938 2940 2943 2943 2940 2937 2936 2936 2934 2931 2928 2926 2923 2920 2916 2914 2910 2909 2907 2904 2905 2902 2899 2904 2905 2906 2909 2912 2913 2916 2919 2922 2925 2927 2927 2927 2927 2928 2936 2944 2949 2954 2957
2934 2932 2934 2931 2930 2930 2928 2925 2925 2923 2919 2917 2916 2912 2909 2904 2904 2903 2901 2899 2898 2895 2894 2894 2892 2896 2898 2899 2901 2905 2908 2907 2907 2908 2910 2912 2915 2919 2929 2936 2940 2944 2948 2952
2928 2925 2924 2920 2917 2916 2916 2914 2912 2910 2908 2904 2903 2901 2900 2895 2893 2892 2892 2889 2890 2889 2888 2886 2888 2888 2889 2890 2892 2893 2895 2896 2895 2896 2896 2906 2911 2920 2926 2930 2934 2938 2941 2943
2918 2914 2913 2911 2905 2904 2903 2900 2899 2896 2895 2893 2891 2889 2888 2886 2884 2883 2882 2883 2884 2883 2882 2882 2882 2882 2883 2882 2883 2885 2886 2887 2889 2893 2898 2905 2911 2918 2921 2925 2928 2932 2935 2938
2908 2906 2902 2897 2894 2891 2890 2887 2884 2883 2882 2880 2880 2878 2876 2875 2875 2874 2872 2873 2874 2875 2876 2875 2874 2873 2873 2874 2875 2877 2880 2884 2889 2896 2900 2904 2908 2912 2917 2921 2923 2927 2930 2936
2898 2895 2892 2888 2883 2879 2876 2874 2872 2870 2870 2869 2869 2868 2866 2865 2864 2863 2864 2865 2866 2866 2866 2865 2866 2866 2867 2868 2871 2875 2880 2885 2889 2893 2897 2901 2904 2909 2912 2916 2919 2923 2929 2935
2889 2883 2881 2875 2872 2868 2865 2863 2860 2858 2858 2857 2858 2859 2857 2856 2854 2855 2856 2857 2858 2859 2859 2860 2861 2862 2863 2864 2868 2874 2879 2882 2886 2890 2894 2899 2903 2907 2910 2913 2916 2922 2928 2933
2881 2874 2868 2862 2858 2855 2853 2850 2848 2848 2847 2846 2848 2848 2847 2847 2847 2848 2848 2850 2852 2854 2856 2857 2860 2863 2864 2866 2870 2874 2879 2884 2888 2892 2895 2898 2901 2904 2908 2914 2918 2922 2925 2928
2869 2862 2856 2851 2848 2845 2842 2842 2839 2837 2836 2836 2837 2838 2838 2839 2842 2844 2845 2848 2850 2852 2854 2857 2861 2867 2869 2871 2874 2877 2881 2885 2888 2891 2893 2897 2902 2907 2911 2915 2917 2919 2921 2923
2859 2854 2849 2845 2842 2839 2836 2832 2830 2829 2829 2830 2831 2833 2835 2838 2840 2843 2846 2848 2851 2855 2858 2863 2867 2870 2873 2875 2878 2880 2882 2884 2888 2892 2897 2901 2905 2908 2910 2912 2913 2915 2916 2917
2852 2849 2845 2842 2839 2836 2833 2830 2830 2829 2829 2830 2832 2834 2836 2839 2842 2845 2849 2852 2856 2860 2863 2866 2869 2872 2875 2877 2879 2882 2884 2887 2891 2894 2897 2900 2902 2904 2906 2907 2908 2909 2909 2910
2851 2847 2844 2842 2839 2836 2834 2833 2833 2833 2834 2835 2837 2840 2843 2844 2849 2853 2856 2860 2862 2866 2869 2871 2874 2876 2878 2880 2883 2885 2887 2889 2891 2892 2893 2895 2897 2899 2900 2901 2901 2900 2900 2899
2852 2850 2847 2844 2842 2840 2840 2841 2841 2843 2843 2845 2846 2849 2851 2853 2855 2859 2862 2864 2866 2869 2872 2874 2876 2878 2879 2880 2882 2884 2885 2886 2888 2889 2890 2890 2890 2891 2891 2891 2890 2889 2888 2887
2857 2856 2855 2854 2853 2852 2851 2852 2853 2854 2855 2855 2856 2857 2860 2863 2864 2866 2868 2869 2871 2873 2875 2876 2878 2879 2879 2880 2881 2882 2883 2883 2884 2884 2884 2883 2882 2881 2881 2879 2877 2875 2873 2871
2867 2866 2865 2864 2863 2861 2862 2863 2863 2863 2864 2863 2865 2867 2868 2869 2872 2871 2873 2873 2874 2876 2878 2878 2878 2879 2879 2878 2878 2878 2877 2877 2876 2875 2874 2872 2870 2868 2866 2863 2861 2859 2856 2854
2875 2874 2873 2872 2871 2870 2869 2870 2870 2869 2871 2872 2872 2873 2874 2875 2875 2875 2876 2877 2876 2876 2877 2876 2875 2875 2874 2873 2871 2870 2869 2867 2865 2863 2861 2858 2855 2852 2850 2847 2844 2842 2839 2837
2881 2881 2880 2878 2877 2876 2876 2876 2877 2876 2876 2876 2877 2877 2876 2876 2876 2877 2877 2875 2874 2874 2874 2872 2870 2869 2867 2865 2863 2860 2857 2855 2852 2849 2847 2845 2841 2837 2834 2830 2827 2825 2823 2819